Content
SEND FEEDBACK

Daily
Averages
Monthly
Summary
Canada

VANCOUVER, BRITISH COLUMBIA


Home > North America > Canada > British Columbia
Elevation: 7 feet     Latitude: 49 11N     Longitude: 123 10W

WEATHER
 
SELECT A DAY
Number of Records: 249,809;   Date Range: 5/15/97 - 9/15/14
 
SHARE

PRINT THIS DATA

[ ← Previous Day ]
WEATHER ALMANAC - JULY 30, 2014
[ Next Day → ]
[ °C ]   °F
Weather ElementAverageHighLow
Temperature67.2 °F75.2 °F (5:00 pm)57.2 °F (5:00 am)
Dewpoint58.6 °F64.4 °F (11:00 pm)55 °F (5:00 am)
Humidity73.9 %94 % (5:00 am)48 % (5:00 pm)
Barometer30.11 in30.15 in (8:00 am)30.07 in (1:00 am)
Wind Speed5.5 mph9.2 mph (2:00 pm)
Weather ElementAverage
Visibility29.7 mi
Wind DirectionS (182 °)

Weather ElementTotal
Precipitation---
Cooling Degree Days1.2 (Base 65)
Growing Degree Days16.2 (Base 50)
Averaged from 25 records on July 30, 2014
WEATHER CONDITIONS BREAKOUT
WIND DIRECTION BREAKOUT
WEATHER BY HOUR - JULY 30, 2014
[ °C ]   °F
Local TimeTemperatureDewpointHumidityBarometerVisibilityWind DirectionWind SpeedGust SpeedPrecipitationEventsConditions
1:00 AM62.6 °F55.4 °F77 %30.07 in30.0 miESE (120°)8.1 mphClear
2:00 AM60.8 °F55.4 °F82 %30.08 in30.0 miESE (110°)6.9 mphClear
3:00 AM59.0 °F55.4 °F88 %30.09 in30.0 miEast (100°)5.8 mphClear
4:00 AM59.0 °F55.4 °F88 %30.11 in30.0 miEast (100°)4.6 mphClear
5:00 AM58.0 °F55.0 °F86 %30.12 in28.0 miESE (120°)3.5 mph
5:00 AM57.2 °F55.4 °F94 %30.12 in30.0 miSE (140°)3.5 mphClear
6:00 AM59.0 °F55.4 °F88 %30.13 in30.0 miSE (140°)4.6 mphClear
7:00 AM60.8 °F55.4 °F82 %30.14 in30.0 miESE (120°)4.6 mphClear
8:00 AM64.4 °F55.4 °F73 %30.15 in30.0 miSE (140°)6.9 mphClear
9:00 AM66.2 °F55.4 °F68 %30.15 in30.0 miSE (140°)6.9 mphClear
10:00 AM68.0 °F55.4 °F64 %30.15 in30.0 miSSE (160°)2.3 mphClear
11:00 AM71.6 °F59.0 °F64 %30.15 in30.0 miSW (230°)6.9 mphClear
11:00 AM71.0 °F59.0 °F58 %30.15 in28.0 miWSW (240°)6.9 mph
12:00 PM69.8 °F62.6 °F78 %30.14 in30.0 miWSW (240°)6.9 mphClear
1:00 PM71.6 °F62.6 °F73 %30.14 in30.0 miWSW (240°)6.9 mphPartly Cloudy
2:00 PM73.4 °F62.6 °F69 %30.14 in30.0 miWSW (240°)9.2 mphPartly Cloudy
3:00 PM73.4 °F62.6 °F69 %30.13 in30.0 miWSW (250°)9.2 mphClear
5:00 PM75.2 °F59.0 °F57 %30.09 in30.0 miWSW (240°)6.9 mphClear
5:00 PM75.0 °F59.0 °F48 %30.10 in28.0 miWSW (240°)6.9 mph
6:00 PM73.4 °F59.0 °F61 %30.09 in30.0 miWSW (240°)5.8 mphClear
7:00 PM73.4 °F60.8 °F65 %30.08 in30.0 miWest (260°)4.6 mphClear
8:00 PM71.6 °F60.8 °F69 %30.07 in30.0 miSW (220°)4.6 mphClear
9:00 PM69.8 °F60.8 °F73 %30.07 in30.0 miWSW (240°)3.5 mphClear
11:00 PM68.0 °F64.0 °F85 %30.09 in28.0 miWest (280°)2.3 mph
11:00 PM68.0 °F64.4 °F88 %30.09 in30.0 miCalmClear
Hourly data recorded from CZBB, located miles away from Vancouver, British Columbia







STORIES FROM OUR PARTNERS